User: anonymous   Login
Location: Unspecified
(0.0000°N, 0.0000°E)
Time: 19:10:28
(UTC+00:00)
Language:

Kosmos-1333 - Orbit

View from above orbital plane
View from above orbital plane
View from above satellite
View from above satellite

Ground track
Ground track

The orbit data is extracted from the following two-line orbital elements,

1 13033U 82003A   18111.39314019  .00000040  00000-0  26441-4 0  9990
2 13033  82.9452 205.7039 0032135 192.6243 237.5959 13.73208184817620
Epoch (UTC): 21 April 2018 09:26:07
Eccentricity: 0.0032135
inclination: 82.9452°
perigee height: 964 km
apogee height: 1012 km
right ascension of ascending node: 205.7039°
argument of perigee: 192.6243°
revolutions per day: 13.73208184
mean anomaly at epoch: 237.5959°
orbit number at epoch: 81762

The dashed part of the orbit path shows where the satellite is in the earth's shadow,  

DLR